Plattsmouth, NE

6:42 AM CDT on May 25, 2018 (GMT -0500)
Plattsmouth Municipal

Weather History for KPMV - December, 2012

Change the Weather History Date:

Thursday, December 13, 2012

  Actual Average (KOFF) Record (KOFF)
Temperature  
Mean Temperature 42 °F -  
Max Temperature 53 °F 37 °F 59 °F (2008)
Min Temperature 31 °F 19 °F 3 °F (2010)
Degree Days  
Heating Degree Days 23    
Moisture  
Dew Point 18 °F    
Average Humidity 42    
Maximum Humidity 63    
Minimum Humidity 28    
Precipitation  
Precipitation 0.00 in - - ()
Sea Level Pressure  
Sea Level Pressure 30.02 in    
Wind  
Wind Speed 10 mph (South)    
Max Wind Speed 15 mph    
Max Gust Speed 21 mph    
Visibility 10 miles    
Events      
Averages and records for this station are not official NWS values.
T = Trace of Precipitation, MM = Missing Value Source: NWS Daily Summary

Daily Weather History Graph

Daily Weather History Graph

Search for Another Location

Airport or City:

Astronomy

Dec. 13, 2012 Rise Set
Actual Time 7:40 AM CST 4:56 PM CST
Civil Twilight 7:09 AM CST 5:27 PM CST
Nautical Twilight 6:34 AM CST 6:01 PM CST
Astronomical Twilight 6:01 AM CST 6:35 PM CST
Moon 7:49 AM CST (12/13) 5:39 PM CST (12/13)
Length of Visible Light 10h 17m
Length of Day
9h 15m
New Moon, 0% of the Moon is Illuminated
Dec 13
New Moon
Dec 19
First Quarter
Dec 28
Full
Jan 4
Last Quarter
Jan 11
New

Hourly Weather History & Observations

Time (CST) Temp. Windchill Dew Point Humidity Pressure Visibility Wind Dir Wind Speed Gust Speed Precip Events Conditions
12:15 AM 36.9 °F 28.2 °F 13.1 °F 38% 29.99 in 10.0 mi SSE 13.8 mph - N/A   Clear
12:35 AM 36.7 °F 28.0 °F 13.5 °F 39% 29.99 in 10.0 mi SSE 13.8 mph - N/A   Clear
12:55 AM 36.5 °F 28.2 °F 13.5 °F 39% 29.99 in 10.0 mi SSE 12.7 mph - N/A   Clear
1:15 AM 36.5 °F 27.8 °F 13.6 °F 39% 29.98 in 10.0 mi SSE 13.8 mph - N/A   Clear
1:35 AM 36.7 °F 27.6 °F 13.8 °F 39% 29.97 in 10.0 mi SSE 15.0 mph 20.7 mph N/A   Clear
1:55 AM 36.7 °F 28.0 °F 14.0 °F 39% 29.98 in 10.0 mi SSE 13.8 mph 19.6 mph N/A   Clear
2:15 AM 36.5 °F 28.2 °F 14.0 °F 40% 29.97 in 10.0 mi SSE 12.7 mph 19.6 mph N/A   Clear
2:35 AM 36.5 °F 27.8 °F 14.0 °F 40% 29.99 in 10.0 mi SSE 13.8 mph 18.4 mph N/A   Clear
2:55 AM 36.0 °F 27.1 °F 14.4 °F 41% 29.99 in 10.0 mi SSE 13.8 mph - N/A   Clear
3:15 AM 36.0 °F 27.5 °F 14.4 °F 41% 29.99 in 10.0 mi SSE 12.7 mph - N/A   Clear
3:35 AM 35.6 °F 27.1 °F 14.5 °F 42% 29.99 in 10.0 mi SSE 12.7 mph - N/A   Clear
3:55 AM 35.2 °F 26.2 °F 14.7 °F 43% 29.99 in 10.0 mi SSE 13.8 mph 18.4 mph N/A   Clear
4:15 AM 35.2 °F 27.1 °F 14.9 °F 43% 29.98 in 10.0 mi SSE 11.5 mph - N/A   Clear
4:35 AM 34.5 °F 25.3 °F 14.9 °F 45% 29.98 in 10.0 mi South 13.8 mph - N/A   Clear
4:55 AM 34.0 °F 25.5 °F 15.1 °F 46% 29.98 in 10.0 mi South 11.5 mph - N/A   Clear
5:15 AM 33.4 °F 25.4 °F 15.4 °F 48% 29.99 in 10.0 mi SSE 10.4 mph - N/A   Clear
5:35 AM 33.8 °F 25.3 °F 15.4 °F 47% 29.99 in 10.0 mi SSE 11.5 mph - N/A   Clear
5:55 AM 32.9 °F 24.7 °F 15.6 °F 49% 29.99 in 10.0 mi South 10.4 mph - N/A   Clear
6:15 AM 32.9 °F 24.1 °F 15.6 °F 49% 29.99 in 10.0 mi South 11.5 mph - N/A   Clear
6:35 AM 32.5 °F 23.7 °F 15.8 °F 50% 30.00 in 10.0 mi South 11.5 mph - N/A   Clear
6:55 AM 32.0 °F 23.0 °F 15.8 °F 51% 30.00 in 10.0 mi South 11.5 mph - N/A   Clear
7:15 AM 32.0 °F 23.6 °F 15.8 °F 51% 30.00 in 10.0 mi South 10.4 mph - N/A   Clear
7:35 AM 32.0 °F 24.8 °F 16.2 °F 52% 30.01 in 10.0 mi South 8.1 mph - N/A   Clear
7:55 AM 31.6 °F 23.1 °F 16.3 °F 53% 30.01 in 10.0 mi South 10.4 mph - N/A   Clear
8:15 AM 31.1 °F 24.5 °F 16.2 °F 54% 30.02 in 10.0 mi South 6.9 mph - N/A   Clear
8:35 AM 32.2 °F 23.8 °F 16.7 °F 53% 30.02 in 10.0 mi South 10.4 mph - N/A   Clear
8:55 AM 34.2 °F 26.2 °F 17.8 °F 51% 30.03 in 10.0 mi South 10.4 mph - N/A   Clear
9:15 AM 36.1 °F 28.2 °F 18.5 °F 49% 30.03 in 10.0 mi South 11.5 mph 16.1 mph N/A   Clear
9:35 AM 37.8 °F 30.2 °F 19.0 °F 47% 30.04 in 10.0 mi South 11.5 mph - N/A   Clear
9:55 AM 39.6 °F 33.0 °F 19.8 °F 45% 30.04 in 10.0 mi SSW 10.4 mph - N/A   Clear
10:15 AM 42.1 °F 35.7 °F 20.5 °F 42% 30.04 in 10.0 mi SSW 11.5 mph - N/A   Clear
10:35 AM 43.7 °F 38.1 °F 20.3 °F 39% 30.04 in 10.0 mi SSW 10.4 mph - N/A   Clear
10:55 AM 45.5 °F 40.3 °F 20.5 °F 37% 30.04 in 10.0 mi SSW 10.4 mph - N/A   Clear
11:15 AM 47.1 °F - 20.5 °F 35% 30.04 in 10.0 mi SSW 10.4 mph - N/A   Clear
11:35 AM 48.2 °F - 20.5 °F 33% 30.05 in 10.0 mi SSW 9.2 mph - N/A   Clear
11:55 AM 48.0 °F - 20.1 °F 33% 30.04 in 10.0 mi SW 8.1 mph - N/A   Clear
12:15 PM 49.8 °F - 20.7 °F 32% 30.04 in 10.0 mi SSW 8.1 mph - N/A   Clear
12:35 PM 51.1 °F - 20.5 °F 30% 30.03 in 10.0 mi SW 9.2 mph - N/A   Clear
12:55 PM 51.8 °F - 20.5 °F 29% 30.02 in 10.0 mi South 6.9 mph - N/A   Clear
1:15 PM 50.2 °F - 20.7 °F 31% 30.03 in 10.0 mi WSW 5.8 mph - N/A   Clear
1:35 PM 51.6 °F - 20.7 °F 30% 30.02 in 10.0 mi SSW 5.8 mph - N/A   Clear
1:55 PM 51.8 °F - 20.3 °F 29% 30.02 in 10.0 mi SSW 3.5 mph - N/A   Clear
2:15 PM 52.3 °F - 21.0 °F 29% 30.01 in 10.0 mi SSW 4.6 mph - N/A   Clear
2:35 PM 52.5 °F - 20.8 °F 29% 30.02 in 10.0 mi South 5.8 mph - N/A   Clear
2:55 PM 52.9 °F - 20.7 °F 28% 30.02 in 10.0 mi SSW 4.6 mph - N/A   Clear
3:15 PM 53.6 °F - 21.2 °F 28% 30.03 in 10.0 mi SSW 3.5 mph - N/A   Clear
3:35 PM 53.2 °F - 21.2 °F 29% 30.03 in 10.0 mi SSW 5.8 mph - N/A   Clear
3:55 PM 50.9 °F - 21.0 °F 31% 30.03 in 10.0 mi South 4.6 mph - N/A   Clear
4:15 PM 49.8 °F - 21.2 °F 32% 30.03 in 10.0 mi SSE 4.6 mph - N/A   Clear
4:35 PM 48.7 °F - 20.5 °F 33% 30.03 in 10.0 mi South 3.5 mph - N/A   Clear
6:15 PM 44.2 °F - 20.7 °F 39% 30.05 in 10.0 mi Calm Calm - N/A   Clear
7:15 PM 42.4 °F 38.8 °F 20.8 °F 42% 30.06 in 10.0 mi SSE 5.8 mph - N/A   Clear
7:35 PM 43.3 °F 39.9 °F 21.0 °F 41% 30.06 in 10.0 mi SSE 5.8 mph - N/A   Clear
7:55 PM 43.2 °F 40.5 °F 21.2 °F 42% 30.05 in 10.0 mi SSE 4.6 mph - N/A   Clear
8:15 PM 43.0 °F 40.3 °F 21.0 °F 42% 30.05 in 10.0 mi SSE 4.6 mph - N/A   Clear
8:35 PM 41.4 °F 37.6 °F 21.2 °F 45% 30.06 in 10.0 mi SE 5.8 mph - N/A   Clear
8:55 PM 39.6 °F 36.3 °F 21.2 °F 48% 30.06 in 10.0 mi SSE 4.6 mph - N/A   Clear
9:15 PM 39.2 °F 35.9 °F 21.2 °F 49% 30.06 in 10.0 mi SSE 4.6 mph - N/A   Clear
9:35 PM 39.9 °F 37.8 °F 21.7 °F 48% 30.06 in 10.0 mi South 3.5 mph - N/A   Clear
9:55 PM 39.0 °F 36.8 °F 21.2 °F 49% 30.06 in 10.0 mi SSE 3.5 mph - N/A   Clear
10:15 PM 41.0 °F 38.0 °F 21.7 °F 46% 30.06 in 10.0 mi SSE 4.6 mph - N/A   Clear
10:35 PM 39.7 °F 36.5 °F 21.6 °F 48% 30.06 in 10.0 mi SSE 4.6 mph - N/A   Clear
10:55 PM 35.8 °F 33.0 °F 21.2 °F 55% 30.05 in 10.0 mi SE 3.5 mph - N/A   Clear
11:15 PM 33.3 °F 30.2 °F 21.0 °F 61% 30.05 in 10.0 mi ESE 3.5 mph - N/A   Clear
11:35 PM 33.1 °F - 21.2 °F 62% 30.05 in 10.0 mi Calm Calm - N/A   Clear
11:55 PM 32.0 °F - 20.7 °F 63% 30.05 in 10.0 mi Calm Calm - N/A   Clear